Regional Weather Roundup
Issued by NWS Green Bay, WI

Home | Current Version | Previous Version | Text Only | Print | Product List | Glossary On
Versions: 1 2 3 4 5 6 7 8 9 10 11 12 13 14 15 16 17 18 19 20 21 22 23 24 25 26 27 28 29 30 31 32 33 34 35 36 37 38 39 40 41 42 43 44 45 46 47 48 49 50
000
ASUS43 KGRB 212211
RWRGRB

NORTH-CENTRAL AND NORTHEAST WISCONSIN REGIONAL WEATHER ROUNDUP
NATIONAL WEATHER SERVICE GREEN BAY WI
400 PM CST TUE NOV 21 2017

WIZ005-009-010>012-018-019-212300-
NORTH CENTRAL WISCONSIN

CITY           SKY/WX    TMP DP  RH WIND       PRES   REMARKS
IRONWOOD       FLURRIES  21  13  71 NW12      30.06R WCI   9
MANITOWISH WTR LGT SNOW  19  13  79 NW9       30.02R WCI   7
ARBOR VITAE    FLURRIES  22  15  74 NW9G20    30.02R
EAGLE RIVER    FLURRIES  19  11  69 N12G21    30.00R WCI   7
LAND O LAKES   LGT SNOW  19  13  76 NW8G17    30.01R WCI   9
RHINELANDER    CLOUDY    21  11  65 NW14G23   30.02R WCI   8
PHILLIPS       PTCLDY    22  10  57 N8        30.04R
ANTIGO         CLOUDY    22  12  64 N18G24    29.99R WCI   8
TOMAHAWK       PTCLDY    21  10  61 NW12G20   30.04R WCI   9
MERRILL        CLOUDY    24  12  60 NW14G20   30.04R
$$

WIZ013-073-212300-
NORTHEAST WISCONSIN

CITY           SKY/WX    TMP DP  RH WIND       PRES   REMARKS
IRON MOUNTAIN  CLOUDY    22  10  60 NW26G32   29.96R WCI   5
MARINETTE      CLOUDY    29  16  58 N10G21    29.99R
OCONTO         CLOUDY    30  15  53 NW10      29.99R
$$

WIZ017-030-035>037-045-212300-
CENTRAL WISCONSIN

CITY           SKY/WX    TMP DP  RH WIND       PRES   REMARKS
MEDFORD        CLEAR     23  10  57 NW14G20   30.04R
WAUSAU         CLOUDY    25  12  58 NW14G25   30.02R
MOSINEE        CLOUDY    25  14  63 NW20G25   30.04R
MARSHFIELD     PTCLDY    25  11  55 NW18G24   30.04R
WISC RAPIDS    CLOUDY    28  12  51 NW16G25   30.06R
STEVENS POINT  CLOUDY    25  11  55 NW13G24   30.04R
WAUPACA        MOCLDY    31  13  47 NW16G29   30.03R
SHAWANO        CLOUDY    31  14  51 NW9G25    30.00R
CLINTONVILLE   CLOUDY    28  10  47 N15G21    30.02R
WAUTOMA        PTCLDY    28  14  55 NW15      30.05R
$$

WIZ038-039-048-051-212300-
FOX VALLEY

CITY           SKY/WX    TMP DP  RH WIND       PRES   REMARKS
NWS GREEN BAY  CLOUDY    31  17  56 NW18      29.99R
APPLETON       MOCLDY    30   9  40 NW17G24   29.98R
OSHKOSH        PTCLDY    29  13  51 NW12G21   30.00R
FOND DU LAC    PTCLDY    30  12  47 NW16G23   30.01R
$$

WIZ022-050-052-212300-
EAST CENTRAL WISCONSIN

CITY           SKY/WX    TMP DP  RH WIND       PRES   REMARKS
EPHRAIM        CLOUDY    28  15  57 N16G26    29.95R
WASHINGTON ISL CLOUDY    28  17  62 NW14G20   29.95R
STURGEON BAY   CLOUDY    30  17  58 NW15G23   29.97R
MANITOWOC      CLOUDY    31  16  54 NW20      29.99R
SHEBOYGAN      CLOUDY    30  15  53 NW21G26   29.98R
$$

LMZ563-521-522-541>543-212300-
LAKESHORE

STATION/POSITION TIME  TEMP    WIND        PRES    VSBY  WAVE
                       AIR SEA DIR/SP/G                  HT/PER
                 (UTC) (F)     (DEG/KT/KT) (MB)    (MI)  (FT/S)
SHEBOYGAN LKSHOR 2200   31     310/ 19/ 23 1015.9R
KEWAUNEE LKSHORE 2148   31     320/ 10/ 18 1014.1R
NORTHPORT PIER   2144   31     310/ 19     1013.9R
N MID LAKE BUOY  2150   31 47  300/ 23/ 29 1014.0R         6/ 5
MENOMINEE LKSHOR 2148   30     310/ 17/ 25 1014.5R
$$




USA.gov is the U.S. government's official web portal to all federal, state and local government web resources and services.